CZ-6 R/B (46841 NORAD) Tracking and Keplerian Element Data

This shows tracking and keplerian element data for the satellite.

Feedback or suggestion? Click here.




ElementValue
Catalog46841
NameCZ-6 R/B
Epoch Orbit404
Epoch Day336.67869575
Epoch Year2020
RAAN50.6312
Inclination97.251
Eccentricity0.0131711
Argument of Perigee312.1829
Mean Anonmoly46.8396
Mean Motion16.01490575
Decay Rate0.00541051
L11 46841U 20079Q 20336.67869575 .00541051 23338-5 33461-3 0 9998
L22 46841 97.2510 50.6312 0131711 312.1829 46.8396 16.01490575 4048

Live tracking and technical data element details for CZ-6 R/B (NORAD 46841). CZ-6 R/B can be tracked NOW for your location showing map with azimuth and elevation plus other details from your city location.

Track the satellite on the map from your city or location and see movement details for azimuth, elevation, latitude, longitude, range, height, and movement on the map or in text.







IsCatalogInMostPopularTable: catalog: 46841, numindb: 28
Update: records affected: 1



GetName: 46841 CZ-6 R/B

Hit Count: updated at: Mon, 18 Jan 2021 16:15:47 GMT